CPA289 VHHH-EDDF

Flight info

Callsign CPA289
Flight time N/A
Altitude 30100
Route BEKOL A461 SHL W22 TEPID W24 OSNOV G586 QP B330 ELKAL W179 WLY/K0935S0980 W179 IGNAK/K0937S0950 W179 WFX/K0933S0980 W179 OMBON W195 VIDEK/K0935S0950 W195 LAXAL/K0930S0980 W195 IDOPA W197 ANDIM B215 IBANO G470 AKLAS W192 FKG A368 SALMO/K0904S1040 A368 SARIN/K0896F340 N161 GASBI/N0489F360 N161 LEYLA T916 MATAL DCT TABAS DCT REBLO UM11 CRM UL746 ODERO DCT OPT DCT IRLOX DCT BALUX DCT TEKNO DCT ABETI DCT SUBEN DCT AKINI T161 DEBHI DEBHI1B
Aircraft B77W/H-SDE1E2E3FGHIJ2J3J4J5M1RWXY/LB1D1

Departure

Time N/A
Airport Hong Kong International Airport (VHHH)

Arrival

Time 2026-05-05 15:58
Airport Frankfurt Main Airport (EDDF)
Time Latitude Longitude Altitude Speed Heading
2026-05-05 13:41 42.82349 29.89115 36075 ft 473 kts 309°
2026-05-05 13:41 42.86254 29.82037 36068 ft 476 kts 309°
2026-05-05 13:42 42.90204 29.74848 36069 ft 476 kts 309°
2026-05-05 13:42 42.94159 29.67721 36065 ft 476 kts 309°
2026-05-05 13:43 42.98163 29.60534 36072 ft 475 kts 309°
2026-05-05 13:43 43.02155 29.53361 36070 ft 474 kts 309°
2026-05-05 13:44 43.06114 29.46227 36073 ft 474 kts 309°
2026-05-05 13:44 43.10092 29.39039 36076 ft 473 kts 309°
2026-05-05 13:45 43.14058 29.31851 36074 ft 473 kts 309°
2026-05-05 13:45 43.18020 29.24658 36074 ft 473 kts 309°
2026-05-05 13:46 43.21953 29.17504 36070 ft 473 kts 308°
2026-05-05 13:46 43.25854 29.10381 36077 ft 474 kts 308°
2026-05-05 13:47 43.29808 29.03144 36079 ft 474 kts 308°
2026-05-05 13:47 43.33772 28.95876 36068 ft 475 kts 308°
2026-05-05 13:48 43.37704 28.88647 36076 ft 475 kts 308°
2026-05-05 13:48 43.41660 28.81358 36079 ft 476 kts 308°
2026-05-05 13:49 43.45616 28.74050 36080 ft 476 kts 308°
2026-05-05 13:49 43.49562 28.66740 36071 ft 476 kts 308°
2026-05-05 13:50 43.53479 28.59469 36075 ft 475 kts 308°
2026-05-05 13:50 43.57418 28.52137 36069 ft 476 kts 308°
2026-05-05 13:51 43.61349 28.44800 36068 ft 475 kts 308°
2026-05-05 13:51 43.65273 28.37461 36082 ft 476 kts 308°
2026-05-05 13:52 43.69202 28.30094 36082 ft 476 kts 308°
2026-05-05 13:52 43.73092 28.22779 36058 ft 476 kts 308°
2026-05-05 13:53 43.77010 28.15394 36058 ft 476 kts 307°
2026-05-05 13:53 43.80922 28.08008 36063 ft 475 kts 307°
2026-05-05 13:54 43.84823 28.00616 36046 ft 475 kts 307°
2026-05-05 13:54 43.88690 27.93267 36044 ft 475 kts 307°
2026-05-05 13:55 43.92580 27.85867 36036 ft 475 kts 307°
2026-05-05 13:55 43.96467 27.78449 36037 ft 475 kts 307°
2026-05-05 13:56 44.00320 27.71074 36033 ft 475 kts 307°
2026-05-05 13:56 44.04199 27.63628 36023 ft 475 kts 307°
2026-05-05 13:57 44.08066 27.56192 36030 ft 475 kts 307°
2026-05-05 13:57 44.11933 27.48736 36030 ft 475 kts 307°
2026-05-05 13:58 44.15793 27.41272 36025 ft 475 kts 307°
2026-05-05 13:58 44.19622 27.33848 36027 ft 474 kts 307°
2026-05-05 13:59 44.25373 27.22667 36019 ft 473 kts 307°
2026-05-05 14:00 44.30455 27.12750 36022 ft 472 kts 307°
2026-05-05 14:00 44.34905 27.04040 36026 ft 471 kts 307°
2026-05-05 14:01 44.38673 26.96641 36017 ft 470 kts 307°
2026-05-05 14:01 44.42456 26.89192 36018 ft 470 kts 307°
2026-05-05 14:02 44.46235 26.81735 36019 ft 469 kts 307°
2026-05-05 14:02 44.50006 26.74276 36016 ft 469 kts 307°
2026-05-05 14:03 44.53750 26.66851 36017 ft 469 kts 307°
2026-05-05 14:03 44.57513 26.59368 36013 ft 470 kts 307°
2026-05-05 14:04 44.61221 26.51821 36005 ft 470 kts 305°
2026-05-05 14:04 44.64733 26.44087 36013 ft 470 kts 304°
2026-05-05 14:05 44.68216 26.36308 36009 ft 471 kts 304°
2026-05-05 14:05 44.71696 26.28588 36008 ft 471 kts 304°
2026-05-05 14:06 44.75212 26.20823 36014 ft 470 kts 304°
2026-05-05 14:06 44.78718 26.13067 36016 ft 470 kts 304°
2026-05-05 14:07 44.82221 26.05295 36012 ft 469 kts 304°
2026-05-05 14:07 44.85712 25.97524 36011 ft 469 kts 304°
2026-05-05 14:08 44.89170 25.89809 36005 ft 468 kts 304°
2026-05-05 14:08 44.92635 25.82055 36009 ft 467 kts 304°
2026-05-05 14:09 44.96097 25.74285 36005 ft 467 kts 304°
2026-05-05 14:09 44.99552 25.66515 35992 ft 467 kts 304°
2026-05-05 14:10 45.03000 25.58736 36008 ft 467 kts 304°
2026-05-05 14:10 45.06418 25.51003 36009 ft 467 kts 304°
2026-05-05 14:11 45.09850 25.43219 36020 ft 467 kts 304°
2026-05-05 14:11 45.13284 25.35410 35992 ft 467 kts 304°
2026-05-05 14:12 45.16704 25.27612 35998 ft 466 kts 304°
2026-05-05 14:12 45.20121 25.19792 36011 ft 466 kts 304°
2026-05-05 14:13 45.23508 25.12017 36005 ft 466 kts 304°
2026-05-05 14:13 45.26913 25.04187 36019 ft 466 kts 303°
2026-05-05 14:14 45.30310 24.96354 36016 ft 466 kts 303°
2026-05-05 14:14 45.33700 24.88517 35995 ft 465 kts 303°
2026-05-05 14:15 45.37080 24.80678 35991 ft 465 kts 303°
2026-05-05 14:15 45.40451 24.72837 36007 ft 464 kts 303°
2026-05-05 14:16 45.43793 24.65044 35998 ft 464 kts 303°
2026-05-05 14:16 45.47154 24.57184 35972 ft 464 kts 303°
2026-05-05 14:17 45.50503 24.49332 35990 ft 464 kts 303°
2026-05-05 14:17 45.53848 24.41469 35977 ft 463 kts 303°
2026-05-05 14:18 45.57186 24.33593 35985 ft 464 kts 302°
2026-05-05 14:18 45.60491 24.25775 35992 ft 464 kts 302°
2026-05-05 14:19 45.63816 24.17855 35983 ft 465 kts 301°
2026-05-05 14:19 45.66889 24.09719 35985 ft 466 kts 299°
2026-05-05 14:20 45.69882 24.01499 35985 ft 466 kts 299°
2026-05-05 14:20 45.72854 23.93335 35993 ft 466 kts 299°
2026-05-05 14:21 45.75859 23.85111 35994 ft 466 kts 299°
2026-05-05 14:21 45.78864 23.76886 35991 ft 466 kts 299°
2026-05-05 14:22 45.81865 23.68652 35987 ft 466 kts 299°
2026-05-05 14:22 45.84857 23.60419 35981 ft 466 kts 299°
2026-05-05 14:23 45.87821 23.52236 35978 ft 465 kts 299°
2026-05-05 14:23 45.90793 23.44003 35969 ft 465 kts 299°
2026-05-05 14:24 45.93758 23.35758 35969 ft 464 kts 299°
2026-05-05 14:24 45.96714 23.27519 35964 ft 464 kts 299°
2026-05-05 14:25 45.99646 23.19323 35970 ft 463 kts 298°
2026-05-05 14:25 46.02587 23.11078 35965 ft 464 kts 298°
2026-05-05 14:26 46.05530 23.02800 35972 ft 464 kts 298°
2026-05-05 14:26 46.08443 22.94577 35976 ft 464 kts 298°
2026-05-05 14:27 46.11369 22.86295 35971 ft 464 kts 298°
2026-05-05 14:27 46.14296 22.77987 35965 ft 464 kts 298°
2026-05-05 14:28 46.17215 22.69675 35974 ft 465 kts 298°
2026-05-05 14:28 46.20128 22.61352 35970 ft 465 kts 298°
2026-05-05 14:29 46.23017 22.53071 35978 ft 464 kts 298°
2026-05-05 14:29 46.25933 22.44685 35973 ft 464 kts 297°
2026-05-05 14:30 46.28808 22.36397 35972 ft 464 kts 297°
2026-05-05 14:30 46.31371 22.28983 35962 ft 464 kts 297°
2026-05-05 14:31 46.34245 22.20651 35963 ft 464 kts 297°
2026-05-05 14:31 46.37096 22.12353 35961 ft 463 kts 297°
2026-05-05 14:32 46.39954 22.03997 35960 ft 463 kts 297°
2026-05-05 14:32 46.42812 21.95627 35959 ft 463 kts 297°
2026-05-05 14:33 46.45664 21.87254 35950 ft 463 kts 297°
2026-05-05 14:33 46.48508 21.78869 35951 ft 463 kts 296°
2026-05-05 14:34 46.51325 21.70541 35948 ft 463 kts 296°
2026-05-05 14:34 46.54155 21.62140 35945 ft 463 kts 296°
2026-05-05 14:35 46.56982 21.53726 35946 ft 463 kts 296°
2026-05-05 14:35 46.59803 21.45305 35943 ft 463 kts 296°
2026-05-05 14:36 46.62617 21.36880 35950 ft 463 kts 296°
2026-05-05 14:36 46.65405 21.28495 35943 ft 463 kts 296°
2026-05-05 14:37 46.68203 21.20062 35932 ft 463 kts 296°
2026-05-05 14:37 46.70996 21.11615 35940 ft 462 kts 295°
2026-05-05 14:38 46.73781 21.03159 35934 ft 462 kts 295°
2026-05-05 14:38 46.76537 20.94771 35928 ft 462 kts 295°
2026-05-05 14:39 46.79308 20.86305 35930 ft 462 kts 295°
2026-05-05 14:39 46.82073 20.77834 35926 ft 463 kts 295°
2026-05-05 14:40 46.84836 20.69334 35926 ft 464 kts 295°
2026-05-05 14:40 46.87580 20.60872 35932 ft 464 kts 295°
2026-05-05 14:41 46.90335 20.52344 35923 ft 464 kts 295°
2026-05-05 14:41 46.93087 20.43801 35919 ft 464 kts 295°
2026-05-05 14:42 46.95836 20.35237 35927 ft 464 kts 294°
2026-05-05 14:42 46.98574 20.26676 35923 ft 464 kts 294°
2026-05-05 14:43 47.01288 20.18165 35921 ft 464 kts 294°
2026-05-05 14:43 47.04008 20.09605 35930 ft 464 kts 294°
2026-05-05 14:44 47.06727 20.01020 35925 ft 464 kts 294°
2026-05-05 14:44 47.09426 19.92467 35933 ft 464 kts 294°
2026-05-05 14:45 47.12132 19.83859 35927 ft 464 kts 294°
2026-05-05 14:45 47.14768 19.75452 35916 ft 465 kts 294°
2026-05-05 14:46 47.17354 19.67179 35919 ft 465 kts 294°
2026-05-05 14:46 47.20025 19.58596 35922 ft 465 kts 293°
2026-05-05 14:47 47.22714 19.49930 35923 ft 465 kts 293°
2026-05-05 14:47 47.25385 19.41292 35930 ft 465 kts 293°
2026-05-05 14:48 47.28059 19.32615 35939 ft 464 kts 293°
2026-05-05 14:48 47.30722 19.23949 35934 ft 464 kts 293°
2026-05-05 14:49 47.33346 19.15348 35935 ft 463 kts 292°
2026-05-05 14:49 47.35321 19.06326 35935 ft 461 kts 283°
2026-05-05 14:50 47.36852 18.97141 35928 ft 461 kts 283°
2026-05-05 14:50 47.38377 18.88020 35920 ft 461 kts 283°
2026-05-05 14:51 47.39926 18.78853 35912 ft 460 kts 283°
2026-05-05 14:51 47.41478 18.69684 35909 ft 461 kts 283°
2026-05-05 14:52 47.43025 18.60503 35915 ft 460 kts 283°
2026-05-05 14:52 47.44557 18.51351 35908 ft 458 kts 283°
2026-05-05 14:53 47.46076 18.42217 35901 ft 457 kts 283°
2026-05-05 14:53 47.47577 18.33152 35903 ft 457 kts 282°
2026-05-05 14:54 47.49080 18.24028 35898 ft 457 kts 283°
2026-05-05 14:54 47.50573 18.14913 35902 ft 457 kts 282°
2026-05-05 14:55 47.52060 18.05793 35903 ft 456 kts 282°
2026-05-05 14:55 47.53528 17.96733 35890 ft 456 kts 282°
2026-05-05 14:56 47.54996 17.87621 35897 ft 456 kts 282°
2026-05-05 14:56 47.56460 17.78489 35891 ft 456 kts 282°
2026-05-05 14:57 47.57906 17.69417 35881 ft 456 kts 282°
2026-05-05 14:57 47.59356 17.60278 35881 ft 456 kts 282°
2026-05-05 14:58 47.60797 17.51131 35885 ft 456 kts 282°
2026-05-05 14:58 47.61989 17.43534 35865 ft 456 kts 282°
2026-05-05 14:59 47.63346 17.34366 35862 ft 455 kts 280°
2026-05-05 14:59 47.64774 17.23702 35863 ft 453 kts 279°
2026-05-05 15:00 47.65810 17.16021 35850 ft 453 kts 279°
2026-05-05 15:00 47.67042 17.06930 35851 ft 453 kts 279°
2026-05-05 15:01 47.68509 16.97829 35850 ft 455 kts 285°
2026-05-05 15:01 47.70518 16.88945 35846 ft 454 kts 286°
2026-05-05 15:02 47.72540 16.80074 35846 ft 453 kts 286°
2026-05-05 15:02 47.74523 16.71251 35823 ft 453 kts 285°
2026-05-05 15:03 47.76496 16.62373 35830 ft 452 kts 285°
2026-05-05 15:03 47.78778 16.52024 35813 ft 454 kts 286°
2026-05-05 15:04 47.80420 16.44541 35822 ft 455 kts 285°
2026-05-05 15:04 47.82367 16.35654 35813 ft 454 kts 285°
2026-05-05 15:05 47.85286 16.22246 35795 ft 454 kts 286°
2026-05-05 15:06 47.87227 16.13282 35805 ft 456 kts 285°
2026-05-05 15:06 47.89174 16.04257 35815 ft 458 kts 285°
2026-05-05 15:07 47.91117 15.95208 35807 ft 459 kts 285°
2026-05-05 15:07 47.93042 15.86199 35803 ft 459 kts 285°
2026-05-05 15:08 47.94975 15.77111 35796 ft 459 kts 284°
2026-05-05 15:08 47.96714 15.68897 35799 ft 457 kts 285°
2026-05-05 15:09 47.98622 15.59838 35763 ft 457 kts 285°
2026-05-05 15:09 48.00519 15.50829 35792 ft 458 kts 284°
2026-05-05 15:10 48.02420 15.41736 35765 ft 459 kts 284°
2026-05-05 15:10 48.04320 15.32608 35768 ft 461 kts 284°
2026-05-05 15:11 48.06216 15.23450 35774 ft 462 kts 285°
2026-05-05 15:11 48.08100 15.14317 35742 ft 463 kts 285°
2026-05-05 15:12 48.09977 15.05182 35758 ft 463 kts 285°
2026-05-05 15:12 48.11861 14.95959 35729 ft 463 kts 284°
2026-05-05 15:13 48.13736 14.86749 35735 ft 462 kts 284°
2026-05-05 15:13 48.15600 14.77541 35725 ft 462 kts 284°
2026-05-05 15:14 48.17438 14.68413 35726 ft 461 kts 284°
2026-05-05 15:14 48.19280 14.59230 35734 ft 460 kts 284°
2026-05-05 15:15 48.21117 14.50032 35737 ft 460 kts 284°
2026-05-05 15:15 48.22944 14.40839 35744 ft 460 kts 284°
2026-05-05 15:16 48.24754 14.31683 35751 ft 461 kts 284°
2026-05-05 15:16 48.26569 14.22453 35753 ft 461 kts 284°
2026-05-05 15:17 48.28382 14.13200 35750 ft 463 kts 284°
2026-05-05 15:17 48.30193 14.03915 35733 ft 464 kts 284°
2026-05-05 15:18 48.31986 13.94673 35735 ft 464 kts 284°
2026-05-05 15:18 48.33783 13.85374 35746 ft 464 kts 283°
2026-05-05 15:19 48.35570 13.76065 35743 ft 464 kts 283°
2026-05-05 15:19 48.37352 13.66746 35737 ft 463 kts 283°
2026-05-05 15:20 48.39123 13.57447 35741 ft 462 kts 283°
2026-05-05 15:20 48.40869 13.48218 35738 ft 461 kts 283°
2026-05-05 15:21 48.42621 13.38924 35746 ft 462 kts 283°
2026-05-05 15:21 48.44584 13.29709 35747 ft 463 kts 288°
2026-05-05 15:22 48.46994 13.20693 35742 ft 464 kts 289°
2026-05-05 15:22 48.49413 13.11678 35746 ft 464 kts 289°
2026-05-05 15:23 48.51788 13.02695 35756 ft 464 kts 288°
2026-05-05 15:23 48.54159 12.93628 35748 ft 465 kts 288°
2026-05-05 15:24 48.56528 12.84537 35746 ft 465 kts 288°
2026-05-05 15:24 48.58890 12.75439 35745 ft 465 kts 288°
2026-05-05 15:25 48.61231 12.66389 35742 ft 466 kts 288°
2026-05-05 15:25 48.63583 12.57258 35757 ft 467 kts 288°
2026-05-05 15:26 48.65932 12.48100 35752 ft 467 kts 288°
2026-05-05 15:26 48.68273 12.38937 35756 ft 468 kts 288°
2026-05-05 15:27 48.70597 12.29804 35752 ft 468 kts 288°
2026-05-05 15:27 48.72936 12.20580 35749 ft 469 kts 287°
2026-05-05 15:28 48.75076 12.11270 35746 ft 466 kts 281°
2026-05-05 15:28 48.76224 12.01654 35778 ft 463 kts 275°
2026-05-05 15:29 48.77170 11.92303 35796 ft 463 kts 276°
2026-05-05 15:29 48.78178 11.82655 35793 ft 464 kts 275°
2026-05-05 15:30 48.79198 11.72985 35796 ft 464 kts 276°
2026-05-05 15:30 48.80195 11.63466 35798 ft 464 kts 275°
2026-05-05 15:31 48.81208 11.53775 35825 ft 465 kts 275°
2026-05-05 15:31 48.82091 11.45317 35798 ft 467 kts 275°
2026-05-05 15:32 48.83093 11.35652 35802 ft 468 kts 275°
2026-05-05 15:32 48.84337 11.25926 35790 ft 474 kts 287°
2026-05-05 15:33 48.87702 11.17237 35809 ft 485 kts 308°
2026-05-05 15:33 48.92723 11.10383 35807 ft 490 kts 315°
2026-05-05 15:34 48.97831 11.03413 34840 ft 503 kts 314°
2026-05-05 15:34 49.00384 10.99808 34077 ft 500 kts 314°
2026-05-05 15:34 49.02915 10.96206 33129 ft 493 kts 314°
2026-05-05 15:34 49.05427 10.92637 32225 ft 495 kts 314°
2026-05-05 15:35 49.07953 10.89059 31317 ft 499 kts 314°
2026-05-05 15:35 49.10476 10.85497 30418 ft 502 kts 314°
2026-05-05 15:35 49.13028 10.81903 29826 ft 498 kts 315°
2026-05-05 15:35 49.15568 10.78318 29120 ft 495 kts 315°
2026-05-05 15:36 49.18078 10.74765 28489 ft 490 kts 315°
2026-05-05 15:36 49.20562 10.71226 27863 ft 486 kts 314°
2026-05-05 15:36 49.22937 10.67598 27295 ft 480 kts 311°
2026-05-05 15:36 49.25237 10.63908 26691 ft 478 kts 311°
2026-05-05 15:37 49.27510 10.60237 26085 ft 474 kts 311°
2026-05-05 15:37 49.29744 10.56651 25490 ft 467 kts 311°
2026-05-05 15:37 49.31990 10.53091 24915 ft 462 kts 312°
2026-05-05 15:37 49.34217 10.49580 24340 ft 460 kts 312°
2026-05-05 15:38 49.36428 10.46050 23777 ft 454 kts 309°
2026-05-05 15:38 49.38381 10.42302 23298 ft 446 kts 303°
2026-05-05 15:38 49.40128 10.38386 22813 ft 445 kts 301°
2026-05-05 15:38 49.41831 10.34399 22300 ft 446 kts 301°
2026-05-05 15:39 49.43548 10.30438 21869 ft 444 kts 302°
2026-05-05 15:39 49.45254 10.26569 21432 ft 445 kts 302°
2026-05-05 15:39 49.47003 10.22653 21009 ft 443 kts 303°
2026-05-05 15:39 49.48747 10.18805 20554 ft 439 kts 302°
2026-05-05 15:40 49.50490 10.14957 20115 ft 436 kts 303°
2026-05-05 15:40 49.52226 10.11157 19662 ft 433 kts 303°
2026-05-05 15:40 49.53937 10.07374 19245 ft 427 kts 302°
2026-05-05 15:40 49.55589 10.03688 18807 ft 424 kts 302°
2026-05-05 15:41 49.57253 9.99976 18379 ft 422 kts 303°
2026-05-05 15:41 49.58907 9.96326 17965 ft 417 kts 302°
2026-05-05 15:41 49.60576 9.92710 17497 ft 409 kts 306°
2026-05-05 15:41 49.62502 9.89511 17046 ft 409 kts 316°
2026-05-05 15:42 49.64648 9.86832 16530 ft 412 kts 322°
2026-05-05 15:42 49.66755 9.84453 16201 ft 413 kts 323°
2026-05-05 15:42 49.69088 9.81893 15862 ft 412 kts 323°
2026-05-05 15:42 49.71411 9.79374 15588 ft 408 kts 323°
2026-05-05 15:43 49.73691 9.76916 15297 ft 407 kts 324°
2026-05-05 15:43 49.76013 9.74399 14980 ft 407 kts 324°
2026-05-05 15:43 49.78293 9.71927 14745 ft 400 kts 323°
2026-05-05 15:43 49.80574 9.69449 14394 ft 400 kts 324°
2026-05-05 15:44 49.82853 9.66974 13989 ft 401 kts 324°
2026-05-05 15:44 49.85101 9.64524 13660 ft 399 kts 324°
2026-05-05 15:44 49.87366 9.62051 13348 ft 397 kts 324°
2026-05-05 15:44 49.89611 9.59593 13075 ft 394 kts 324°
2026-05-05 15:45 49.91791 9.57199 13029 ft 386 kts 324°
2026-05-05 15:45 49.93961 9.54811 12979 ft 378 kts 323°
2026-05-05 15:45 49.96079 9.52478 12826 ft 368 kts 323°
2026-05-05 15:45 49.98156 9.50191 12447 ft 364 kts 324°
2026-05-05 15:46 50.00211 9.47927 12004 ft 359 kts 323°
2026-05-05 15:46 50.02203 9.45736 11555 ft 343 kts 323°
2026-05-05 15:46 50.04112 9.43639 11097 ft 330 kts 323°
2026-05-05 15:46 50.05918 9.41657 10589 ft 315 kts 323°
2026-05-05 15:47 50.07661 9.39744 10077 ft 303 kts 323°
2026-05-05 15:47 50.08829 9.38463 9775 ft 305 kts 323°
2026-05-05 15:47 50.11102 9.35977 9042 ft 297 kts 323°
2026-05-05 15:47 50.12778 9.34153 8504 ft 291 kts 323°
2026-05-05 15:48 50.14420 9.32370 7968 ft 283 kts 323°
2026-05-05 15:48 50.16009 9.30647 7434 ft 273 kts 323°
2026-05-05 15:48 50.17545 9.28988 6968 ft 264 kts 323°
2026-05-05 15:48 50.19027 9.27397 6473 ft 256 kts 324°
2026-05-05 15:49 50.20344 9.25693 5962 ft 243 kts 303°
2026-05-05 15:49 50.20964 9.23359 5447 ft 231 kts 272°
2026-05-05 15:49 50.20925 9.20847 5062 ft 234 kts 264°
2026-05-05 15:49 50.20729 9.18349 4998 ft 233 kts 254°
2026-05-05 15:50 50.20259 9.15929 4983 ft 232 kts 247°
2026-05-05 15:50 50.19484 9.13774 4987 ft 227 kts 233°
2026-05-05 15:50 50.18648 9.11688 4988 ft 228 kts 241°
2026-05-05 15:50 50.17983 9.09414 4978 ft 231 kts 246°
2026-05-05 15:51 50.17397 9.07105 5024 ft 229 kts 247°
2026-05-05 15:51 50.16831 9.04778 4986 ft 230 kts 248°
2026-05-05 15:51 50.16272 9.02443 4984 ft 229 kts 248°
2026-05-05 15:51 50.15726 9.00146 4984 ft 229 kts 248°
2026-05-05 15:52 50.15176 8.97832 4992 ft 228 kts 248°
2026-05-05 15:52 50.14623 8.95509 4987 ft 228 kts 248°
2026-05-05 15:52 50.14072 8.93189 4996 ft 228 kts 248°
2026-05-05 15:52 50.13521 8.90870 4988 ft 228 kts 248°
2026-05-05 15:53 50.12971 8.88556 4989 ft 228 kts 248°
2026-05-05 15:53 50.12419 8.86234 4992 ft 229 kts 248°
2026-05-05 15:53 50.11855 8.83868 4712 ft 236 kts 248°
2026-05-05 15:53 50.11284 8.81469 4374 ft 235 kts 248°
2026-05-05 15:54 50.10717 8.79089 4038 ft 233 kts 248°
2026-05-05 15:54 50.10164 8.76774 3714 ft 227 kts 248°
2026-05-05 15:54 50.09637 8.74554 3405 ft 210 kts 248°
2026-05-05 15:54 50.09147 8.72492 3103 ft 194 kts 248°
2026-05-05 15:55 50.08701 8.70630 2860 ft 178 kts 248°
2026-05-05 15:55 50.08272 8.68829 2615 ft 178 kts 249°
2026-05-05 15:55 50.07840 8.67012 2374 ft 178 kts 248°
2026-05-05 15:55 50.07418 8.65242 2096 ft 168 kts 249°
2026-05-05 15:56 50.07034 8.63645 1872 ft 154 kts 249°
2026-05-05 15:56 50.06683 8.62168 1678 ft 141 kts 249°
2026-05-05 15:56 50.06342 8.60749 1517 ft 140 kts 249°
2026-05-05 15:56 50.05992 8.59305 1302 ft 146 kts 250°
2026-05-05 15:57 50.05646 8.57827 1069 ft 148 kts 249°
2026-05-05 15:57 50.05406 8.56817 902 ft 151 kts 249°
2026-05-05 15:57 50.04936 8.54840 595 ft 144 kts 248°
2026-05-05 15:57 50.04587 8.53392 393 ft 142 kts 249°
2026-05-05 15:58 50.04262 8.52032 347 ft 125 kts 250°
2026-05-05 15:58 50.04065 8.51221 333 ft 28 kts 244°
2026-05-05 15:58 50.03934 8.50954 328 ft 21 kts 221°
2026-05-05 15:58 50.03841 8.50844 330 ft 17 kts 201°
2026-05-05 15:59 50.03797 8.50859 338 ft 0 kts 136°
2026-05-05 16:00 50.03787 8.50880 338 ft 6 kts 126°
2026-05-05 16:00 50.03764 8.50939 336 ft 6 kts 119°
2026-05-05 16:01 50.03743 8.51001 342 ft 6 kts 117°
2026-05-05 16:01 50.03722 8.51063 355 ft 6 kts 117°
2026-05-05 16:01 50.03702 8.51126 356 ft 7 kts 116°
2026-05-05 16:01 50.03681 8.51195 358 ft 8 kts 116°
2026-05-05 16:02 50.03655 8.51276 354 ft 9 kts 116°
2026-05-05 16:02 50.03626 8.51367 363 ft 10 kts 116°
2026-05-05 16:02 50.03595 8.51465 366 ft 11 kts 116°
2026-05-05 16:02 50.03559 8.51581 359 ft 12 kts 116°
2026-05-05 16:03 50.03522 8.51701 361 ft 12 kts 113°
2026-05-05 16:03 50.03514 8.51835 361 ft 14 kts 84°
2026-05-05 16:03 50.03526 8.51994 353 ft 15 kts 83°
2026-05-05 16:03 50.03540 8.52169 349 ft 18 kts 83°
2026-05-05 16:04 50.03560 8.52339 345 ft 16 kts 71°
2026-05-05 16:04 50.03593 8.52506 355 ft 16 kts 82°
2026-05-05 16:04 50.03608 8.52678 355 ft 15 kts 72°
2026-05-05 16:04 50.03631 8.52785 346 ft 10 kts 78°
2026-05-05 16:05 50.03617 8.52853 352 ft 6 kts 128°
2026-05-05 16:05 50.03588 8.52906 352 ft 7 kts 121°
2026-05-05 16:05 50.03585 8.52987 354 ft 8 kts 91°
2026-05-05 16:05 50.03554 8.53055 354 ft 8 kts 154°
2026-05-05 16:06 50.03508 8.53002 342 ft 9 kts 239°
2026-05-05 16:06 50.03481 8.52907 350 ft 10 kts 246°
2026-05-05 16:06 50.03437 8.52827 341 ft 10 kts 202°
2026-05-05 16:06 50.03366 8.52819 340 ft 11 kts 181°
2026-05-05 16:07 50.03292 8.52818 340 ft 11 kts 179°
2026-05-05 16:07 50.03218 8.52820 340 ft 11 kts 179°
2026-05-05 16:07 50.03142 8.52821 340 ft 12 kts 179°
2026-05-05 16:07 50.03054 8.52822 339 ft 14 kts 179°
2026-05-05 16:08 50.02950 8.52822 337 ft 16 kts 180°
2026-05-05 16:08 50.02831 8.52824 339 ft 18 kts 180°
2026-05-05 16:08 50.02702 8.52825 337 ft 19 kts 179°
2026-05-05 16:08 50.02573 8.52826 341 ft 19 kts 180°
2026-05-05 16:09 50.02472 8.52875 336 ft 16 kts 137°
2026-05-05 16:09 50.02410 8.53015 338 ft 16 kts 110°
2026-05-05 16:09 50.02424 8.53183 339 ft 16 kts 70°
2026-05-05 16:09 50.02463 8.53346 347 ft 16 kts 70°
2026-05-05 16:10 50.02501 8.53508 346 ft 16 kts 69°
2026-05-05 16:10 50.02540 8.53667 338 ft 16 kts 70°
2026-05-05 16:10 50.02579 8.53831 336 ft 16 kts 69°
2026-05-05 16:10 50.02618 8.53995 339 ft 16 kts 69°
2026-05-05 16:11 50.02657 8.54158 354 ft 16 kts 69°
2026-05-05 16:11 50.02765 8.54654 351 ft 16 kts 70°
2026-05-05 16:12 50.02804 8.54817 355 ft 16 kts 69°
2026-05-05 16:12 50.02882 8.55145 353 ft 16 kts 69°
2026-05-05 16:13 50.03001 8.55637 353 ft 16 kts 69°
2026-05-05 16:13 50.03036 8.55784 359 ft 13 kts 69°
2026-05-05 16:13 50.03067 8.55913 359 ft 13 kts 69°
2026-05-05 16:14 50.03128 8.56167 358 ft 13 kts 70°
2026-05-05 16:14 50.03172 8.56356 360 ft 8 kts 70°
2026-05-05 16:15 50.03213 8.56526 357 ft 9 kts 70°
2026-05-05 16:15 50.03250 8.56681 362 ft 7 kts 70°
2026-05-05 16:16 50.03281 8.56813 365 ft 6 kts 70°
2026-05-05 16:16 50.03309 8.56931 363 ft 6 kts 70°
2026-05-05 16:17 50.03335 8.57041 363 ft 6 kts 70°
2026-05-05 16:17 50.03349 8.57099 366 ft 6 kts 70°
2026-05-05 16:18 50.03338 8.57233 361 ft 7 kts 113°
2026-05-05 16:18 50.03316 8.57309 366 ft 9 kts 114°
2026-05-05 16:18 50.03270 8.57450 363 ft 6 kts 141°
2026-05-05 16:19 50.03237 8.57452 360 ft 2 kts 187°
2026-05-05 16:19 50.03221 8.57445 361 ft 2 kts 200°
2026-05-05 16:19 50.03194 8.57425 361 ft 2 kts 204°
2026-05-05 16:20 50.03181 8.57416 361 ft 0 kts 204°